Terug naar catalogus

COSMOS 1529

ActiefMilitairLEO
NORAD 14618·PAYLOAD·🇷🇺 Russia

Gelanceerd Jan 5, 1984 vanaf Plesetsk Cosmodrome

Loading…

Volgende Passages (komende 24 uur)

TLE

VersSource: Space-Track

Epoch: Sep 14, 2026, 08:36 UTC

1 14618U 84001H   26257.35872637 -.00000023  00000-0 -51833-4 0  9997
2 14618  74.0104  29.2919 0031231 132.7192 256.1833 12.44868811766656

Volg COSMOS 1529 in realtime met AllMySat

Download on the App Store